FW2134 Weather Reports


time (UTC)temp
F
wind
direction
speed
knots
gust
knots
rain 1hr
in
rain 24hr
in
rain mn
in
humidity
%
barometer
mb
20260504211537 74 199 6.1 0.0 0.00 0.00 0.00 27 1008.3
20260504210036 73 76 6.1 0.0 0.00 0.00 0.00 28 1008.3
20260504204535 73 141 5.2 0.0 0.00 0.00 0.00 28 1008.4
20260504203035 75 95 6.1 0.0 0.00 0.00 0.00 28 1008.3
20260504201534 74 137 7.0 0.0 0.00 0.00 0.00 27 1008.5
20260504200041 75 123 6.1 0.0 0.00 0.00 0.00 30 1008.6
20260504194538 74 152 5.2 0.0 0.00 0.00 0.00 28 1008.7
20260504193032 74 154 6.1 0.0 0.00 0.00 0.00 28 1008.8
20260504191548 74 124 6.1 0.0 0.00 0.00 0.00 27 1009.0
20260504190032 74 127 7.0 0.0 0.00 0.00 0.00 28 1009.3
20260504184535 74 128 7.0 0.0 0.00 0.00 0.00 30 1009.5
20260504183039 74 116 5.2 0.0 0.00 0.00 0.00 27 1009.6
20260504181528 73 140 5.2 0.0 0.00 0.00 0.00 27 1009.8
20260504180026 72 165 5.2 0.0 0.00 0.00 0.00 33 1010.2
20260504174525 72 89 7.0 0.0 0.00 0.00 0.00 30 1010.3
20260504173027 72 198 7.8 0.0 0.00 0.00 0.00 30 1010.4
20260504171523 71 185 5.2 0.0 0.00 0.00 0.00 32 1010.5
20260504081506 47 114 0.9 0.0 0.00 0.00 0.00 55 1012.9
20260504044548 50 124 0.9 0.0 0.00 0.00 0.00 48 1012.2
20260504043042 50 113 1.7 0.0 0.00 0.00 0.00 48 1012.1
20260504041540 50 116 1.7 0.0 0.00 0.00 0.00 48 1012.0
20260504040049 51 133 1.7 0.0 0.00 0.00 0.00 47 1011.9
20260504034554 51 131 0.9 0.0 0.00 0.00 0.00 46 1012.0
20260504033046 52 134 1.7 0.0 0.00 0.00 0.00 46 1011.8
20260504031537 52 148 0.0 0.0 0.00 0.00 0.00 45 1011.8
20260504030044 53 151 0.9 0.0 0.00 0.00 0.00 42 1011.7
20260504024537 53 155 1.7 0.0 0.00 0.00 0.00 40 1011.7
20260504023047 53 130 1.7 0.0 0.00 0.00 0.00 39 1011.7
20260504021535 53 131 1.7 0.0 0.00 0.00 0.00 38 1011.8
20260504020038 54 120 1.7 0.0 0.00 0.00 0.00 38 1011.7
20260504014545 54 120 0.9 0.0 0.00 0.00 0.00 37 1011.5
20260504013043 54 158 0.9 0.0 0.00 0.00 0.00 36 1011.4
20260504011535 54 134 0.9 0.0 0.00 0.00 0.00 35 1011.2
20260504010041 55 128 0.9 0.0 0.00 0.00 0.00 34 1011.0
20260504004537 55 158 0.9 0.0 0.00 0.00 0.00 33 1010.8
20260504003037 56 133 0.9 0.0 0.00 0.00 0.00 32 1010.5
20260504001534 57 140 0.9 0.0 0.00 0.00 0.00 30 1010.3
20260504000033 57 159 1.7 0.0 0.00 0.00 0.00 29 1010.2
20260503234540 58 183 3.5 0.0 0.00 0.00 0.00 28 1010.0
20260503233031 58 157 5.2 0.0 0.00 0.00 0.00 28 1009.9
20260503231534 59 195 6.1 0.0 0.00 0.00 0.00 27 1009.8
20260503230038 60 158 4.3 0.0 0.00 0.00 0.00 27 1009.8
20260503224532 60 179 5.2 0.0 0.00 0.00 0.00 26 1009.7
20260503223031 60 171 6.1 0.0 0.00 0.00 0.00 25 1009.4
20260503221539 60 203 7.8 0.0 0.00 0.00 0.00 25 1009.6
20260503220030 60 206 5.2 0.0 0.00 0.00 0.00 26 1009.6
20260503214529 60 216 8.7 0.0 0.00 0.00 0.00 25 1009.4
20260503213029 59 222 7.0 0.0 0.00 0.00 0.00 25 1009.4